| time (UTC) | temp C | wind direction | speed KPH | gust KPH | rain 1hr cm | rain 24hr cm | rain mn cm | humidity % | barometer mb |
| 20260505151919 | 10 | 45 | 16.1 | 22.5 | 0.00 | 2.01 | 2.01 | 80 | |
| 20260505151415 | 10 | 37 | 11.3 | 17.7 | 0.00 | 2.01 | 2.01 | 79 | |
| 20260505150913 | 10 | 42 | 24.1 | 27.4 | 0.00 | 2.01 | 2.01 | 74 | |
| 20260505150410 | 10 | 32 | 14.5 | 22.5 | 0.00 | 2.01 | 2.01 | 76 | |
| 20260505140340 | 9 | 41 | 14.5 | 24.1 | 0.00 | 2.01 | 2.01 | 78 | |
| 20260505130303 | 10 | 15 | 25.7 | 35.4 | 0.30 | 1.80 | 1.80 | 79 | |
| 20260505124754 | 10 | 0 | 17.7 | 22.5 | 0.00 | 1.75 | 1.75 | 80 | |
| 20260505124251 | 10 | 13 | 14.5 | 16.1 | 0.00 | 1.75 | 1.75 | 81 | |
| 20260505123746 | 10 | 20 | 12.9 | 14.5 | 0.00 | 1.75 | 1.75 | 82 | |
| 20260505123243 | 10 | 332 | 11.3 | 12.9 | 0.18 | 1.75 | 1.75 | 84 | |
| 20260505122740 | 10 | 344 | 9.7 | 16.1 | 0.18 | 1.75 | 1.75 | 84 | |
| 20260505122237 | 10 | 26 | 9.7 | 12.9 | 0.00 | 1.73 | 1.73 | 82 | |
| 20260505121733 | 10 | 1 | 9.7 | 12.9 | 0.00 | 1.73 | 1.73 | 82 | |
| 20260505121230 | 10 | 350 | 9.7 | 11.3 | 0.13 | 1.73 | 1.73 | 83 | |
| 20260505120726 | 10 | 341 | 8.0 | 12.9 | 0.13 | 1.73 | 1.73 | 81 | |
| 20260505120222 | 10 | 4 | 11.3 | 12.9 | 0.00 | 1.70 | 1.70 | 80 | |
| 20260505115721 | 10 | 358 | 6.4 | 11.3 | 0.00 | 1.70 | 1.70 | 81 | |
| 20260505115219 | 10 | 18 | 11.3 | 16.1 | 0.00 | 1.70 | 1.70 | 81 | |
| 20260505114716 | 10 | 23 | 9.7 | 14.5 | 0.00 | 1.70 | 1.70 | 82 | |
| 20260505114212 | 10 | 34 | 9.7 | 11.3 | 0.00 | 1.70 | 1.70 | 81 | |
| 20260505113709 | 10 | 59 | 6.4 | 11.3 | 0.00 | 1.70 | 1.70 | 82 | |
| 20260505113205 | 10 | 49 | 6.4 | 11.3 | 0.18 | 1.70 | 1.70 | 82 | |
| 20260505112702 | 10 | 24 | 11.3 | 14.5 | 0.30 | 1.70 | 1.70 | 83 | |
| 20260505112200 | 10 | 66 | 8.0 | 14.5 | 0.30 | 1.68 | 1.68 | 83 | |
| 20260505111659 | 10 | 56 | 12.9 | 17.7 | 0.48 | 1.65 | 1.65 | 82 | |
| 20260505111155 | 10 | 41 | 16.1 | 20.9 | 0.48 | 1.60 | 1.60 | 81 | |
| 20260505110651 | 11 | 36 | 12.9 | 16.1 | 0.43 | 1.55 | 1.55 | 80 | |
| 20260505110149 | 11 | 358 | 16.1 | 20.9 | 0.43 | 1.50 | 1.50 | 79 | |
| 20260505102125 | 13 | 7 | 11.3 | 24.1 | 0.00 | 1.22 | 1.22 | 72 | |
| 20260505101623 | 14 | 22 | 14.5 | 17.7 | 0.00 | 1.22 | 1.22 | 71 | |
| 20260505101119 | 14 | 17 | 14.5 | 16.1 | 0.00 | 1.22 | 1.22 | 76 | |
| 20260505100615 | 14 | 38 | 12.9 | 14.5 | 0.00 | 1.22 | 1.22 | 80 | |
| 20260505100113 | 14 | 343 | 12.9 | 14.5 | 0.00 | 1.22 | 1.22 | 85 | |
| 20260505095609 | 14 | 143 | 3.2 | 6.4 | 0.00 | 1.22 | 1.22 | 90 | |
| 20260505095105 | 14 | 256 | 4.8 | 9.7 | 0.00 | 1.22 | 1.22 | 90 | |
| 20260505094602 | 14 | 246 | 9.7 | 16.1 | 0.00 | 1.22 | 1.22 | 90 | |
| 20260505094058 | 14 | 233 | 6.4 | 12.9 | 0.00 | 1.22 | 1.22 | 90 | |
| 20260505093554 | 14 | 250 | 8.0 | 11.3 | 0.00 | 1.22 | 1.22 | 90 | |
| 20260505093052 | 14 | 242 | 8.0 | 11.3 | 0.00 | 1.22 | 1.22 | 91 | |
| 20260505092549 | 14 | 226 | 6.4 | 9.7 | 0.00 | 1.22 | 1.22 | 91 | |
| 20260505092048 | 14 | 228 | 9.7 | 12.9 | 0.00 | 1.22 | 1.22 | 91 | |
| 20260505091544 | 14 | 213 | 12.9 | 17.7 | 0.00 | 1.22 | 1.22 | 93 | |
| 20260505091043 | 14 | 246 | 11.3 | 17.7 | 0.00 | 1.22 | 1.22 | 94 | |
| 20260505090540 | 14 | 197 | 6.4 | 6.4 | 0.00 | 1.22 | 1.22 | 94 | |
| 20260505090038 | 14 | 154 | 0.0 | 4.8 | 0.00 | 1.22 | 1.22 | 94 | |
| 20260505085535 | 14 | 149 | 0.0 | 1.6 | 0.00 | 1.22 | 1.22 | 94 | |
| 20260505085033 | 14 | 140 | 0.0 | 0.0 | 0.00 | 1.22 | 1.22 | 94 | |
| 20260505084531 | 14 | 173 | 8.0 | 12.9 | 0.00 | 1.22 | 1.22 | 94 | |
| 20260505084029 | 14 | 165 | 3.2 | 9.7 | 0.00 | 1.22 | 1.22 | 94 | |
| 20260505083526 | 14 | 190 | 0.0 | 6.4 | 0.00 | 1.22 | 1.22 | 94 | |
| 20260505083022 | 14 | 336 | 9.7 | 11.3 | 0.00 | 1.22 | 1.22 | 93 | |
| 20260505082518 | 14 | 326 | 6.4 | 11.3 | 0.00 | 1.22 | 1.22 | 93 | |
| 20260505082015 | 15 | 7 | 11.3 | 14.5 | 0.00 | 1.22 | 1.22 | 92 | |
| 20260505081511 | 15 | 19 | 12.9 | 22.5 | 0.00 | 1.22 | 1.22 | 89 | |
| 20260505081009 | 15 | 163 | 1.6 | 12.9 | 0.13 | 1.22 | 1.22 | 83 | |
| 20260505080505 | 15 | 280 | 4.8 | 12.9 | 0.30 | 1.22 | 1.22 | 83 | |
| 20260505080000 | 15 | 254 | 9.7 | 14.5 | 0.30 | 1.19 | 1.19 | 92 | |
| 20260505075457 | 14 | 240 | 8.0 | 12.9 | 0.43 | 1.17 | 1.17 | 94 | |
| 20260505074955 | 14 | 178 | 9.7 | 17.7 | 0.61 | 1.14 | 1.14 | 94 | |
| 20260505074452 | 14 | 236 | 11.3 | 17.7 | 0.61 | 1.09 | 1.09 | 93 | |
| 20260505073949 | 14 | 238 | 12.9 | 16.1 | 0.79 | 1.04 | 1.04 | 92 | |
| 20260505073446 | 14 | 240 | 17.7 | 25.7 | 0.66 | 0.99 | 0.99 | 92 | |
| 20260505072943 | 14 | 234 | 19.3 | 27.4 | 0.48 | 0.91 | 0.91 | 91 | |
| 20260505072439 | 14 | 210 | 14.5 | 17.7 | 0.48 | 0.86 | 0.86 | 90 | |
| 20260505071936 | 14 | 252 | 19.3 | 22.5 | 0.48 | 0.81 | 0.81 | 89 | |
| 20260505071432 | 15 | 226 | 19.3 | 25.7 | 0.43 | 0.79 | 0.79 | 88 | |
| 20260505070930 | 15 | 248 | 20.9 | 25.7 | 0.13 | 0.74 | 0.74 | 87 | |
| 20260505070427 | 15 | 249 | 22.5 | 27.4 | 0.00 | 0.71 | 0.71 | 87 | |
| 20260505065922 | 14 | 250 | 24.1 | 29.0 | 0.00 | 0.71 | 0.71 | 86 | |
| 20260505065419 | 14 | 242 | 20.9 | 24.1 | 0.00 | 0.71 | 0.71 | 84 | |
| 20260505064916 | 14 | 232 | 17.7 | 22.5 | 0.18 | 0.71 | 0.71 | 84 | |
| 20260505064413 | 14 | 239 | 16.1 | 17.7 | 0.18 | 0.71 | 0.71 | 85 | |
| 20260505063911 | 13 | 228 | 8.0 | 11.3 | 0.00 | 0.69 | 0.69 | 87 | |
| 20260505063407 | 13 | 187 | 9.7 | 12.9 | 0.13 | 0.69 | 0.69 | 87 | |
| 20260505062904 | 13 | 202 | 6.4 | 12.9 | 0.13 | 0.69 | 0.69 | 87 | |
| 20260505062401 | 13 | 217 | 8.0 | 14.5 | 0.18 | 0.66 | 0.66 | 86 | |
| 20260505061858 | 14 | 215 | 14.5 | 17.7 | 0.30 | 0.66 | 0.66 | 89 | |
| 20260505061356 | 13 | 206 | 6.4 | 12.9 | 0.61 | 0.64 | 0.64 | 91 | |
| 20260505060853 | 14 | 193 | 6.4 | 9.7 | 0.66 | 0.61 | 0.61 | 94 | |
| 20260505060350 | 13 | 195 | 14.5 | 14.5 | 0.48 | 0.53 | 0.53 | 93 | |
| 20260505055846 | 14 | 192 | 1.6 | 4.8 | 0.61 | 0.51 | 0.51 | 92 | |
| 20260505055342 | 14 | 118 | 1.6 | 3.2 | 2.69 | 0.46 | 0.46 | 91 | |
| 20260505054839 | 16 | 181 | 8.0 | 24.1 | 2.29 | 0.38 | 0.38 | 84 | |
| 20260505054337 | 18 | 314 | 14.5 | 33.8 | 0.00 | 0.00 | 0.00 | 72 | |
| 20260505053835 | 18 | 240 | 16.1 | 24.1 | 0.00 | 0.00 | 0.00 | 71 | |
| 20260505053331 | 18 | 205 | 17.7 | 30.6 | 0.00 | 0.00 | 0.00 | 71 | |
| 20260505052828 | 19 | 205 | 16.1 | 38.6 | 0.00 | 0.00 | 0.00 | 66 | |
| 20260505052325 | 19 | 210 | 19.3 | 27.4 | 0.00 | 0.00 | 0.00 | 66 | |
| 20260505051822 | 19 | 217 | 17.7 | 35.4 | 0.00 | 0.00 | 0.00 | 65 | |
| 20260505051320 | 19 | 215 | 24.1 | 29.0 | 0.00 | 0.00 | 0.00 | 65 | |
| 20260505050818 | 19 | 198 | 17.7 | 27.4 | 0.00 | 0.00 | 0.00 | 64 | |
| 20260505050316 | 20 | 229 | 17.7 | 24.1 | 0.00 | 0.00 | 0.00 | 64 | |
| 20260505041746 | 20 | 233 | 29.0 | 35.4 | 0.00 | 0.56 | 0.56 | 62 | |
| 20260505041243 | 20 | 200 | 22.5 | 29.0 | 0.00 | 0.56 | 0.56 | 63 | |
| 20260505040740 | 20 | 212 | 19.3 | 29.0 | 0.00 | 0.56 | 0.56 | 63 | |
| 20260505040238 | 20 | 222 | 19.3 | 40.2 | 0.00 | 0.56 | 0.56 | 63 | |
| 20260505035734 | 20 | 198 | 22.5 | 33.8 | 0.00 | 0.56 | 0.56 | 63 | |
| 20260505035230 | 20 | 207 | 20.9 | 35.4 | 0.00 | 0.56 | 0.56 | 64 | |
| 20260505034727 | 20 | 186 | 17.7 | 29.0 | 0.00 | 0.56 | 0.56 | 63 | |
| 20260505034224 | 20 | 166 | 22.5 | 37.0 | 0.00 | 0.56 | 0.56 | 64 | |
| 20260505033721 | 20 | 191 | 14.5 | 27.4 | 0.00 | 0.56 | 0.56 | 63 | |
| 20260505033218 | 20 | 206 | 17.7 | 27.4 | 0.00 | 0.56 | 0.56 | 64 | |
| 20260505032716 | 20 | 213 | 24.1 | 35.4 | 0.00 | 0.56 | 0.56 | 63 | |
| 20260505032212 | 20 | 294 | 19.3 | 33.8 | 0.00 | 0.56 | 0.56 | 63 | |
| 20260505031710 | 20 | 190 | 17.7 | 33.8 | 0.00 | 0.56 | 0.56 | 64 | |
| 20260505031206 | 20 | 169 | 16.1 | 37.0 | 0.00 | 0.56 | 0.56 | 64 | |
| 20260505030703 | 20 | 189 | 27.4 | 41.8 | 0.00 | 0.56 | 0.56 | 63 | |
| 20260505030159 | 20 | 183 | 16.1 | 33.8 | 0.00 | 0.56 | 0.56 | 62 | |
| 20260505025655 | 20 | 209 | 27.4 | 40.2 | 0.00 | 0.56 | 0.56 | 62 | |
| 20260505025153 | 20 | 208 | 20.9 | 37.0 | 0.00 | 0.56 | 0.56 | 61 | |
| 20260505024651 | 20 | 207 | 25.7 | 37.0 | 0.00 | 0.56 | 0.56 | 61 | |
| 20260505024147 | 20 | 205 | 22.5 | 29.0 | 0.00 | 0.56 | 0.56 | 61 | |
| 20260505023645 | 20 | 226 | 24.1 | 30.6 | 0.00 | 0.56 | 0.56 | 61 | |
| 20260505023142 | 20 | 188 | 25.7 | 41.8 | 0.00 | 0.56 | 0.56 | 61 | |
| 20260505022640 | 20 | 210 | 27.4 | 38.6 | 0.00 | 0.56 | 0.56 | 61 | |
| 20260505022137 | 20 | 170 | 25.7 | 35.4 | 0.00 | 0.56 | 0.56 | 61 | |
| 20260505021633 | 20 | 213 | 27.4 | 35.4 | 0.00 | 0.56 | 0.56 | 62 | |
| 20260505021130 | 20 | 192 | 27.4 | 33.8 | 0.00 | 0.56 | 0.56 | 62 | |
| 20260505020626 | 20 | 202 | 27.4 | 41.8 | 0.00 | 0.56 | 0.56 | 62 | |
| 20260505020122 | 20 | 196 | 27.4 | 38.6 | 0.00 | 0.56 | 0.56 | 62 | |
| 20260505015619 | 20 | 203 | 24.1 | 38.6 | 0.00 | 0.56 | 0.56 | 63 | |
| 20260505015116 | 20 | 217 | 24.1 | 33.8 | 0.00 | 0.56 | 0.56 | 64 | |
| 20260505014613 | 20 | 193 | 24.1 | 30.6 | 0.00 | 0.56 | 0.56 | 63 | |
| 20260505014110 | 20 | 214 | 20.9 | 30.6 | 0.00 | 0.56 | 0.56 | 62 | |
| 20260505013607 | 20 | 225 | 17.7 | 35.4 | 0.00 | 0.56 | 0.56 | 63 | |
| 20260505013104 | 20 | 210 | 20.9 | 27.4 | 0.00 | 0.56 | 0.56 | 65 | |
| 20260505012602 | 20 | 182 | 17.7 | 27.4 | 0.00 | 0.56 | 0.56 | 64 | |
| 20260505012059 | 20 | 188 | 24.1 | 37.0 | 0.00 | 0.56 | 0.56 | 63 | |
| 20260505011554 | 20 | 100 | 20.9 | 30.6 | 0.00 | 0.56 | 0.56 | 62 | |
| 20260505011052 | 20 | 194 | 14.5 | 27.4 | 0.00 | 0.56 | 0.56 | 62 | |
| 20260505010547 | 20 | 191 | 17.7 | 29.0 | 0.00 | 0.56 | 0.56 | 61 | |
| 20260505010044 | 20 | 194 | 27.4 | 35.4 | 0.00 | 0.56 | 0.56 | 60 | |
| 20260505005540 | 20 | 189 | 24.1 | 33.8 | 0.00 | 0.56 | 0.56 | 60 | |
| 20260505005038 | 20 | 191 | 29.0 | 33.8 | 0.00 | 0.56 | 0.56 | 61 | |
| 20260505004535 | 20 | 233 | 24.1 | 33.8 | 0.00 | 0.56 | 0.56 | 63 | |
| 20260505004031 | 19 | 280 | 24.1 | 38.6 | 0.00 | 0.56 | 0.56 | 65 | |
| 20260505003529 | 20 | 205 | 30.6 | 37.0 | 0.00 | 0.56 | 0.56 | 64 | |
| 20260505003026 | 20 | 198 | 12.9 | 37.0 | 0.00 | 0.56 | 0.56 | 64 | |
| 20260505002521 | 20 | 221 | 17.7 | 27.4 | 0.00 | 0.56 | 0.56 | 62 | |
| 20260505002020 | 21 | 242 | 20.9 | 27.4 | 0.00 | 0.56 | 0.56 | 60 | |
| 20260505001517 | 21 | 207 | 17.7 | 25.7 | 0.00 | 0.56 | 0.56 | 59 | |
| 20260505001014 | 21 | 228 | 19.3 | 27.4 | 0.00 | 0.56 | 0.56 | 57 | |
| 20260505000511 | 22 | 240 | 17.7 | 25.7 | 0.00 | 0.56 | 0.56 | 55 | |
| 20260505000009 | 22 | 238 | 16.1 | 22.5 | 0.00 | 0.56 | 0.56 | 55 | |
| 20260504235505 | 22 | 220 | 20.9 | 29.0 | 0.00 | 0.56 | 0.56 | 54 | |
| 20260504235002 | 22 | 246 | 14.5 | 22.5 | 0.00 | 0.56 | 0.56 | 54 | |
| 20260504234459 | 22 | 206 | 24.1 | 30.6 | 0.00 | 0.56 | 0.56 | 53 | |
| 20260504233955 | 22 | 211 | 24.1 | 29.0 | 0.00 | 0.56 | 0.56 | 55 | |
| 20260504233451 | 22 | 204 | 19.3 | 35.4 | 0.00 | 0.56 | 0.56 | 54 | |
| 20260504232948 | 22 | 178 | 16.1 | 25.7 | 0.00 | 0.56 | 0.56 | 55 | |
| 20260504232445 | 22 | 199 | 29.0 | 35.4 | 0.00 | 0.56 | 0.56 | 55 | |
| 20260504231943 | 22 | 211 | 14.5 | 24.1 | 0.00 | 0.56 | 0.56 | 57 | |
| 20260504231439 | 22 | 198 | 24.1 | 30.6 | 0.00 | 0.56 | 0.56 | 55 | |
| 20260504230935 | 22 | 239 | 24.1 | 33.8 | 0.00 | 0.56 | 0.56 | 55 | |
| 20260504230432 | 22 | 204 | 29.0 | 40.2 | 0.00 | 0.56 | 0.56 | 54 | |
| 20260504225931 | 22 | 216 | 14.5 | 27.4 | 0.00 | 0.56 | 0.56 | 57 | |
| 20260504225427 | 22 | 238 | 14.5 | 29.0 | 0.00 | 0.56 | 0.56 | 57 | |
| 20260504224925 | 22 | 226 | 14.5 | 25.7 | 0.00 | 0.56 | 0.56 | 57 | |
| 20260504224421 | 22 | 195 | 17.7 | 40.2 | 0.00 | 0.56 | 0.56 | 56 | |
| 20260504223919 | 22 | 205 | 12.9 | 27.4 | 0.00 | 0.56 | 0.56 | 56 | |
| 20260504223414 | 22 | 227 | 16.1 | 27.4 | 0.00 | 0.56 | 0.56 | 55 | |
| 20260504222910 | 22 | 261 | 22.5 | 30.6 | 0.00 | 0.56 | 0.56 | 54 | |
| 20260504222407 | 22 | 254 | 19.3 | 30.6 | 0.00 | 0.56 | 0.56 | 52 | |
| 20260504221906 | 23 | 183 | 27.4 | 37.0 | 0.00 | 0.56 | 0.56 | 52 | |
| 20260504221402 | 23 | 231 | 22.5 | 33.8 | 0.00 | 0.56 | 0.56 | 51 | |
| 20260504220859 | 23 | 217 | 19.3 | 38.6 | 0.00 | 0.56 | 0.56 | 52 | |
| 20260504220356 | 23 | 209 | 24.1 | 46.7 | 0.00 | 0.56 | 0.56 | 51 | |
| 20260504215853 | 23 | 154 | 17.7 | 25.7 | 0.00 | 0.56 | 0.56 | 52 | |
| 20260504215349 | 23 | 203 | 33.8 | 43.5 | 0.00 | 0.56 | 0.56 | 50 | |
| 20260504214845 | 23 | 173 | 24.1 | 35.4 | 0.00 | 0.56 | 0.56 | 51 | |
| 20260504214343 | 23 | 209 | 16.1 | 29.0 | 0.00 | 0.56 | 0.56 | 53 | |
| 20260504213839 | 23 | 220 | 19.3 | 35.4 | 0.00 | 0.56 | 0.56 | 52 | |
| 20260504213335 | 23 | 197 | 17.7 | 38.6 | 0.00 | 0.56 | 0.56 | 54 | |
| 20260504212833 | 23 | 196 | 27.4 | 35.4 | 0.00 | 0.56 | 0.56 | 50 | |
| 20260504212328 | 23 | 192 | 14.5 | 27.4 | 0.00 | 0.56 | 0.56 | 53 | |
| 20260504211827 | 23 | 132 | 17.7 | 40.2 | 0.00 | 0.56 | 0.56 | 51 | |
| 20260504211327 | 23 | 193 | 27.4 | 46.7 | 0.00 | 0.56 | 0.56 | 52 | |
| 20260504210825 | 23 | 184 | 17.7 | 29.0 | 0.00 | 0.56 | 0.56 | 52 | |
| 20260504210322 | 23 | 136 | 16.1 | 40.2 | 0.00 | 0.56 | 0.56 | 55 | |
| 20260504205819 | 22 | 212 | 29.0 | 41.8 | 0.00 | 0.56 | 0.56 | 53 | |
| 20260504205317 | 22 | 223 | 24.1 | 33.8 | 0.00 | 0.56 | 0.56 | 54 | |
| 20260504204815 | 23 | 235 | 20.9 | 24.1 | 0.00 | 0.56 | 0.56 | 53 | |
| 20260504204313 | 23 | 224 | 12.9 | 29.0 | 0.00 | 0.56 | 0.56 | 56 | |
| 20260504203812 | 23 | 227 | 14.5 | 29.0 | 0.00 | 0.56 | 0.56 | 56 | |
| 20260504203309 | 23 | 217 | 20.9 | 46.7 | 0.00 | 0.56 | 0.56 | 54 | |
| 20260504202810 | 23 | 212 | 22.5 | 37.0 | 0.00 | 0.56 | 0.56 | 55 | |
| 20260504202308 | 22 | 100 | 17.7 | 29.0 | 0.00 | 0.56 | 0.56 | 55 | |
| 20260504201804 | 22 | 195 | 14.5 | 35.4 | 0.00 | 0.56 | 0.56 | 54 | |
| 20260504201301 | 22 | 160 | 17.7 | 40.2 | 0.00 | 0.56 | 0.56 | 53 | |
| 20260504200759 | 22 | 190 | 17.7 | 29.0 | 0.00 | 0.56 | 0.56 | 55 | |
| 20260504200255 | 22 | 197 | 22.5 | 29.0 | 0.00 | 0.56 | 0.56 | 57 | |
| 20260504195752 | 22 | 214 | 17.7 | 38.6 | 0.00 | 0.56 | 0.56 | 57 | |
| 20260504195247 | 22 | 195 | 22.5 | 30.6 | 0.00 | 0.56 | 0.56 | 58 | |
| 20260504194745 | 22 | 220 | 24.1 | 48.3 | 0.00 | 0.56 | 0.56 | 58 | |
| 20260504194241 | 21 | 234 | 20.9 | 25.7 | 0.00 | 0.56 | 0.56 | 60 | |
| 20260504193737 | 21 | 200 | 19.3 | 30.6 | 0.00 | 0.56 | 0.56 | 60 | |
| 20260504193235 | 21 | 270 | 24.1 | 30.6 | 0.00 | 0.56 | 0.56 | 61 | |
| 20260504192733 | 21 | 244 | 27.4 | 33.8 | 0.00 | 0.56 | 0.56 | 63 | |
| 20260504192231 | 20 | 208 | 25.7 | 35.4 | 0.00 | 0.56 | 0.56 | 66 | |
| 20260504191729 | 20 | 242 | 24.1 | 35.4 | 0.00 | 0.56 | 0.56 | 65 | |
| 20260504191226 | 20 | 251 | 27.4 | 35.4 | 0.00 | 0.56 | 0.56 | 65 | |
| 20260504190721 | 20 | 246 | 19.3 | 24.1 | 0.00 | 0.56 | 0.56 | 68 | |
| 20260504190217 | 19 | 232 | 17.7 | 27.4 | 0.00 | 0.56 | 0.56 | 69 | |
| 20260504185714 | 19 | 240 | 16.1 | 24.1 | 0.00 | 0.56 | 0.56 | 69 | |
| 20260504185211 | 19 | 239 | 22.5 | 30.6 | 0.00 | 0.56 | 0.56 | 65 | |
| 20260504184707 | 19 | 229 | 17.7 | 20.9 | 0.00 | 0.56 | 0.56 | 68 | |
| 20260504184203 | 19 | 240 | 17.7 | 24.1 | 0.00 | 0.56 | 0.56 | 66 | |
| 20260504183659 | 19 | 214 | 14.5 | 20.9 | 0.00 | 0.56 | 0.56 | 65 | |
| 20260504183156 | 20 | 214 | 14.5 | 29.0 | 0.00 | 0.56 | 0.56 | 65 | |
| 20260504182654 | 20 | 215 | 8.0 | 24.1 | 0.00 | 0.56 | 0.56 | 65 | |
| 20260504182151 | 20 | 180 | 12.9 | 20.9 | 0.00 | 0.56 | 0.56 | 67 | |
| 20260504181649 | 20 | 216 | 14.5 | 17.7 | 0.00 | 0.56 | 0.56 | 67 | |
| 20260504181146 | 20 | 197 | 11.3 | 17.7 | 0.00 | 0.56 | 0.56 | 65 | |
| 20260504180645 | 20 | 211 | 20.9 | 27.4 | 0.00 | 0.56 | 0.56 | 60 | |
| 20260504180143 | 21 | 215 | 17.7 | 30.6 | 0.00 | 0.56 | 0.56 | 62 | |
| 20260504175640 | 21 | 228 | 30.6 | 40.2 | 0.00 | 0.56 | 0.56 | 59 | |
| 20260504175137 | 22 | 235 | 20.9 | 30.6 | 0.00 | 0.56 | 0.56 | 62 | |
| 20260504174635 | 21 | 251 | 20.9 | 30.6 | 0.00 | 0.56 | 0.56 | 62 | |
| 20260504174131 | 21 | 229 | 19.3 | 30.6 | 0.00 | 0.56 | 0.56 | 64 | |
| 20260504173629 | 21 | 221 | 20.9 | 33.8 | 0.00 | 0.56 | 0.56 | 62 | |
| 20260504173126 | 21 | 232 | 17.7 | 22.5 | 0.00 | 0.56 | 0.56 | 61 | |
| 20260504172622 | 21 | 237 | 24.1 | 30.6 | 0.00 | 0.56 | 0.56 | 60 | |
| 20260504172119 | 21 | 198 | 17.7 | 29.0 | 0.00 | 0.56 | 0.56 | 64 | |
| 20260504171615 | 21 | 226 | 20.9 | 35.4 | 0.00 | 0.56 | 0.56 | 65 | |
| 20260504171113 | 21 | 219 | 17.7 | 22.5 | 0.00 | 0.56 | 0.56 | 62 | |
| 20260504170608 | 21 | 222 | 12.9 | 20.9 | 0.00 | 0.56 | 0.56 | 63 | |
| 20260504170107 | 21 | 181 | 9.7 | 22.5 | 0.00 | 0.56 | 0.56 | 61 |